Hourly Data Report for November 03, 2020

OTTAWA INTL A
ONTARIO
Current Station Operator: NAVCAN

45°19'00.000" N
75°40'00.000" W
114.90 m
6106001
71628
YOW

Download Data

Hourly Data (November 2020)
Hourly Data Report for November 3, 2020
TIME Temp Definition
°C
Dew Point Definition
°C
Rel Hum Definition
%
Wind Dir Definition
10's deg

Wind Spd Definition
km/h
Visibility Definition
km
Stn Press Definition
kPa
Hmdx Definition


Wind Chill Definition


Weather Definition


00:00 0.2 -2.5 82 28 20 24.1 98.70     LegendNANA
01:00 -0.4 -2.8 84 28 24 24.1 98.80   -6 Mainly Clear
02:00 -0.5 -2.5 86 27 21 24.1 98.90   -6 LegendNANA
03:00 -1.2 -6.2 69 30 32 24.1 99.06   -8 LegendNANA
04:00 -2.0 -7.0 68 30 41 24.1 99.29   -10 Mostly Cloudy
05:00 -2.9 -8.1 67 31 37 24.1 99.49   -11 LegendNANA
06:00 -3.1 -9.3 63 31 44 24.1 99.68   -12 LegendNANA
07:00 -3.8 -9.0 67 31 25 24.1 99.91   -11 Clear
08:00 -3.0 -7.0 74 31 24 24.1 100.05   -10 LegendNANA
09:00 -3.6 -8.0 72 30 24 24.1 100.24   -10 Snow
10:00 -3.0 -8.9 64 29 23 24.1 100.36   -9 Mostly Cloudy
11:00 -2.1 -9.2 58 31 18 24.1 100.49   -8 LegendNANA
12:00 -1.9 -8.5 61 30 17 24.1 100.56   -7 LegendNANA
13:00 -1.9 -8.4 61 27 19 24.1 100.59   -7 Mostly Cloudy
14:00 -1.8 -8.3 61 27 17 24.1 100.66   -7 LegendNANA
15:00 -1.6 -8.9 58 25 16 24.1 100.75   -7 LegendNANA
16:00 -2.1 -8.9 60 25 11 24.1 100.80   -6 Mainly Clear
17:00 -2.6 -8.2 66 25 11 24.1 100.84   -7 LegendNANA
18:00 -2.4 -8.2 64 23 5 24.1 100.89   -4 LegendNANA
19:00 -2.4 -7.4 68 36 1 24.1 100.96   -3 Cloudy
20:00 -2.3 -6.5 73 15 6 24.1 101.01   -5 LegendNANA
21:00 -2.3 -6.6 72 14 7 12.9 101.05   -5 Snow
22:00 -2.3 -6.6 72 17 8 12.9 101.06   -5 Snow
23:00 -2.5 -6.1 76 12 9 12.9 101.12   -6 Snow

Notes on Data Quality.

Legend

  • E = Estimated
  • M = Missing
  • NA = Not Available*
  • [empty] = Indicates an unobserved value
Date modified: